Flag for Germany Weather past 2 weeks in Datteln, North Rhine-Westphalia, Germany

Now
48 °F

Light rain. Low clouds.


Feels Like: 44 °F
Forecast: 48 / 55 °F
Wind: 10 mph from West

Location: Dortmund / Wickede

Current Time: Dec 17, 2014 at 9:26:47 PM

Latest Report: Dec 17, 2014 at 8:50 PM


Visibility: 4 mi

Pressure: 29.74 "Hg

Humidity: 87%

Dew point: 45 °F

Location of DattelnLocation

Historic Weather in Datteln — Graph

°F

Datteln temperature yesterday

Maximum temperature yesterday: 43 °F (at 11:20 AM)
Minimum temperature yesterday: 37 °F (at 9:20 PM)
Average temperature yesterday: 41 °F

Past Weeks' High & Low Weather Summary

 TemperatureHumidityPressure
High48 °F (Dec 17, 7:50 PM)93% (Dec 3, 5:20 AM)30.36 "Hg (Dec 3, 5:20 AM)
Low27 °F (Dec 3, 3:20 PM)57% (Dec 7, 2:20 PM)29.39 "Hg (Dec 12, 12:50 PM)
Average38 °F82%29.95 "Hg
* Reported Dec 2 8:20 PM — Dec 17 8:20 PM, Datteln, Weather by CustomWeather, © 2014

Note: Actual official high and low records may vary slightly from our data, if they occured in-between our weather recording intervals... More about our weather records

Advertising

Datteln weather history for previous 24 hours

 ConditionsComfort  
Time TempWeatherWind HumidityBarometerVisibility
8:20 PM
Dec 17
48 °FLight rain. Low clouds.12 mph87%29.71 "Hg3 mi
7:50 PM48 °FRain. Low clouds.14 mph87%29.71 "Hg3 mi
7:20 PM46 °FPassing clouds.14 mph93%29.68 "Hg3 mi
6:50 PM46 °FPassing clouds.13 mph93%29.68 "Hg4 mi
6:20 PM46 °FPassing clouds.14 mph93%29.68 "Hg4 mi
5:50 PM46 °FPassing clouds.15 mph87%29.65 "Hg3 mi
5:20 PM45 °FDrizzle. Low clouds.14 mph93%29.65 "Hg3 mi
4:50 PM45 °FDrizzle. Fog.15 mph93%29.65 "Hg3 mi
4:20 PM45 °FFog.15 mph87%29.62 "Hg2 mi
3:50 PM45 °FDrizzle. Fog.16 mph87%29.62 "Hg2 mi
3:20 PM43 °FDrizzle. Fog.14 mph93%29.59 "Hg2 mi
2:50 PM43 °FDrizzle. Fog.17 mph87%29.59 "Hg2 mi
2:20 PM43 °FDrizzle. Overcast.20 mph87%29.59 "Hg3 mi
1:50 PM43 °FPartly sunny.20 mph81%29.56 "HgN/A
1:20 PM41 °FPartly sunny.21 mph87%29.56 "HgN/A
12:50 PM41 °FSprinkles. Partly sunny.21 mph87%29.56 "Hg5 mi
12:20 PM41 °FLight rain. Partly sunny.17 mph81%29.59 "HgN/A
11:50 AM41 °FLight rain. Partly sunny.18 mph81%29.59 "HgN/A
11:20 AM39 °FSprinkles. Partly sunny.20 mph87%29.62 "Hg6 mi
10:50 AM39 °FPartly sunny.18 mph81%29.62 "HgN/A
10:20 AM39 °FBroken clouds.16 mph81%29.65 "HgN/A
9:50 AM39 °FSprinkles. Partly sunny.15 mph81%29.65 "Hg6 mi
9:20 AM39 °FPartly sunny.15 mph81%29.68 "HgN/A
8:50 AM39 °FSprinkles. Scattered clouds.17 mph81%29.68 "HgN/A
8:20 AM39 °FSprinkles. Passing clouds.17 mph75%29.71 "HgN/A
7:50 AM39 °FPassing clouds.16 mph75%29.74 "HgN/A
7:20 AM39 °FClear.15 mph75%29.74 "Hg10 mi
6:50 AM39 °FClear.15 mph75%29.77 "Hg10 mi
6:20 AM39 °FClear.13 mph75%29.80 "Hg10 mi
5:50 AM39 °FClear.13 mph81%29.80 "Hg10 mi
5:20 AM39 °FClear.12 mph81%29.83 "Hg10 mi
10:50 PM
Dec 16
37 °FClear.9 mph87%29.92 "Hg10 mi
10:20 PM37 °FClear.10 mph93%29.92 "Hg10 mi
9:50 PM37 °FClear.8 mph87%29.92 "Hg10 mi
9:20 PM37 °FClear.7 mph87%29.92 "Hg10 mi
Weather by CustomWeather, © 2014

See weather overviewHow to use our weather pages